Home   Weather   Sevierville   Past weeks

Flag for USA Past Weather in Sevierville, Tennessee, USA — Yesterday and Last 2 Weeks

51 °F


Feels Like: 47 °F
Forecast: 46 / 72 °F
Wind: 12 mph from Northeast

Location: McGhee Tyson Airport

Current Time: Oct 25, 2016 at 8:08:59 AM

Latest Report: Oct 25, 2016 at 6:53 AM

Visibility: 10 mi

Pressure: 30.28 "Hg

Humidity: 69%

Dew Point: 41 °F

Location of SeviervilleLocation

Past Weather in Sevierville — Graph


Sevierville Temperature Yesterday

Maximum temperature yesterday: 78 °F (at 4:53 PM)
Minimum temperature yesterday: 51 °F (at 4:53 AM)
Average temperature yesterday: 64 °F

High & Low Weather Summary for the Past Weeks

High88 °F (Oct 19, 3:53 PM)90% (Oct 12, 7:53 AM)30.37 "Hg (Oct 12, 7:53 AM)
Low40 °F (Oct 23, 5:53 AM)21% (Oct 12, 4:53 PM)29.79 "Hg (Oct 21, 1:53 AM)
Average65 °F58%30.12 "Hg
* Reported Oct 10 6:53 AM — Oct 25 6:53 AM, Sevierville, Weather by CustomWeather, © 2016

Note: Actual official high and low records may vary slightly from our data, if they occured in-between our weather recording intervals... More about our weather records


Sevierville Weather History for the Previous 24 Hours

Scroll right to see more
Time TempWeatherWind HumidityBarometerVisibility
6:53 AM
Tue, Oct 25
51 °FClear.12 mph69%30.28 "Hg10 mi
5:53 AM50 °FClear.7 mph71%30.27 "Hg10 mi
4:53 AM51 °FClear.5 mph69%30.26 "Hg10 mi
3:53 AM53 °FClear.6 mph64%30.26 "Hg10 mi
2:53 AM53 °FClear.7 mph66%30.26 "Hg10 mi
1:53 AM53 °FClear.5 mph66%30.26 "Hg10 mi
12:53 AM58 °FClear.10 mph54%30.26 "Hg10 mi
11:53 PM
Mon, Oct 24
56 °FClear.6 mph58%30.27 "Hg10 mi
10:53 PM61 °FClear.5 mph46%30.25 "Hg10 mi
9:53 PM65 °FClear.No wind39%30.24 "Hg10 mi
8:53 PM66 °FClear.8 mph37%30.22 "Hg10 mi
7:53 PM69 °FPassing clouds.10 mph33%30.20 "Hg10 mi
6:53 PM73 °FPassing clouds.6 mph36%30.18 "Hg10 mi
5:53 PM77 °FPassing clouds.5 mph32%30.16 "Hg10 mi
4:53 PM78 °FPassing clouds.3 mph30%30.16 "Hg10 mi
3:53 PM77 °FPassing clouds.5 mph32%30.16 "Hg10 mi
2:53 PM77 °FPassing clouds.3 mph32%30.17 "Hg10 mi
1:53 PM75 °FPassing clouds.6 mph34%30.20 "Hg10 mi
12:53 PM73 °FPassing clouds.5 mph34%30.21 "Hg10 mi
11:53 AM70 °FPassing clouds.9 mph37%30.22 "Hg10 mi
10:53 AM69 °FPassing clouds.12 mph36%30.24 "Hg10 mi
9:53 AM62 °FScattered clouds.6 mph52%30.24 "Hg10 mi
8:53 AM55 °FScattered clouds.3 mph64%30.24 "Hg10 mi
Weather by CustomWeather, © 2016

See weather overviewHow to use our weather pages